Погода в Бушире

Иран     28°56′40″N   50°50′44″E
темп.,
°C
ветер,
м/с
пор.,
м/с
влажн.,
%
обл.,
%
осадки,
мм/ч
давл.,
гПа
погр.,
м
12 апреля, пн
пн1201:30+25ююз2250100 0.0 101111
04:30+25сз45464 0.0 101016
07:30+23с446294 0.0 101140
10:30+23зюз446219 0.1 101339
13:30+23з446594 0.0 101242
16:30+23з1173100 0.0 101016
19:30+24ссз226097 0.0 101114
22:30+25ссв224894 0.0 101111
13 апреля, вт
вт1301:30+25з33475 0.0 101011
04:30+23зюз5561100 0.0 101135
07:30+25в81150100 0.0 101177
10:30+26всв91349100 0.1 1012113
13:30+26св4450100 0.1 101319
16:30+26св12164997 0.1 1011191
19:30+26всв91153100 0.0 101084
22:30+25в91254100 0.0 101179
14 апреля, ср
ср1401:30+24юв5561100 0.1 101032
04:30+23ссв576659 0.3 100956
07:30+23всв33675 0.1 101018
10:30+23юз33700 0.1 101129
13:30+23з667487 0.1 101175
16:30+23сз69710 0.1 100883
19:30+23сз67720 0.0 100968
22:30+23сз45770 0.0 101051
15 апреля, чт
чт1501:30+23сз59740 0.0 1010102
04:30+23сз814580 0.0 1010195
07:30+23ссз1017530 0.0 1012263
10:30+22сз912540 0.0 1013187
13:30+22сз912580 0.0 1012205
16:30+22зсз812600 0.0 1010170
19:30+22зсз59630 0.0 1010103
22:30+22с22655 0.0 101111
16 апреля, пт
пт1601:30+22з2261100 0.0 101011
04:30+22зсз457297 0.0 101066
07:30+22ссз45620 0.0 101178
10:30+23сз56535 0.0 101283
13:30+22сз811633 0.0 1012163
16:30+22зсз610620 0.0 1010152
19:30+23зсз45650 0.0 100953
22:30+22ююв00730 0.0 101011